TimeMDT,TemperatureF,Dew PointF,Humidity,Sea Level PressureIn,VisibilityMPH,Wind Direction,Wind SpeedMPH,Gust SpeedMPH,PrecipitationIn,Events,Conditions,WindDirDegrees,DateUTC
12:15 AM,57.2,39.2,51,30.21,10.0,Calm,Calm,-,N/A,,Clear,0,2013-08-20 06:15:00
12:35 AM,55.4,33.8,44,30.21,10.0,North,5.8,-,N/A,,Clear,10,2013-08-20 06:35:00
12:55 AM,57.2,33.8,41,30.21,10.0,North,9.2,-,N/A,,Clear,350,2013-08-20 06:55:00
1:15 AM,57.2,35.6,44,30.21,10.0,North,5.8,-,N/A,,Clear,10,2013-08-20 07:15:00
1:35 AM,55.4,35.6,47,30.21,10.0,North,6.9,-,N/A,,Clear,10,2013-08-20 07:35:00
1:55 AM,55.4,35.6,47,30.21,10.0,NNW,5.8,-,N/A,,Clear,340,2013-08-20 07:55:00
2:15 AM,55.4,35.6,47,30.21,10.0,North,8.1,-,N/A,,Clear,360,2013-08-20 08:15:00
2:35 AM,55.4,35.6,47,30.21,10.0,North,6.9,-,N/A,,Clear,350,2013-08-20 08:35:00
2:55 AM,53.6,33.8,47,30.20,10.0,North,8.1,-,N/A,,Clear,10,2013-08-20 08:55:00
3:35 AM,55.4,33.8,44,30.20,10.0,North,8.1,-,N/A,,Clear,10,2013-08-20 09:35:00
3:55 AM,55.4,33.8,44,30.20,10.0,NE,4.6,-,N/A,,Clear,40,2013-08-20 09:55:00
4:15 AM,53.6,33.8,47,30.20,10.0,North,6.9,-,N/A,,Clear,350,2013-08-20 10:15:00
4:35 AM,51.8,33.8,50,30.20,10.0,Calm,Calm,-,N/A,,Clear,0,2013-08-20 10:35:00
4:55 AM,51.8,33.8,50,30.20,10.0,NE,5.8,-,N/A,,Clear,40,2013-08-20 10:55:00
5:15 AM,53.6,33.8,47,30.20,10.0,NNE,3.5,-,N/A,,Clear,20,2013-08-20 11:15:00
5:35 AM,53.6,33.8,47,30.21,10.0,Calm,Calm,-,N/A,,Clear,0,2013-08-20 11:35:00
5:55 AM,51.8,35.6,54,30.21,10.0,NNE,3.5,-,N/A,,Clear,20,2013-08-20 11:55:00
6:15 AM,51.8,35.6,54,30.21,10.0,NNW,4.6,-,N/A,,Partly Cloudy,340,2013-08-20 12:15:00
6:35 AM,51.8,35.6,54,30.22,10.0,NNE,3.5,-,N/A,,Mostly Cloudy,20,2013-08-20 12:35:00
6:51 AM,51.8,37.4,58,30.22,10.0,Calm,Calm,-,N/A,,Mostly Cloudy,0,2013-08-20 12:51:00
7:55 AM,55.4,37.4,51,30.23,10.0,Calm,Calm,-,N/A,,Mostly Cloudy,0,2013-08-20 13:55:00
8:51 AM,64.4,37.4,37,30.22,10.0,ESE,5.8,-,N/A,,Mostly Cloudy,110,2013-08-20 14:51:00
9:52 AM,64.4,37.4,37,30.23,10.0,Calm,Calm,-,N/A,,Mostly Cloudy,0,2013-08-20 15:52:00
10:52 AM,69.8,37.4,31,30.23,10.0,South,6.9,-,N/A,,Clear,180,2013-08-20 16:52:00
11:51 AM,73.4,42.8,33,30.22,10.0,SSW,5.8,-,N/A,,Clear,200,2013-08-20 17:51:00
12:51 PM,80.6,42.8,26,30.19,10.0,South,11.5,-,N/A,,Clear,180,2013-08-20 18:51:00
1:51 PM,82.4,37.4,20,30.18,10.0,South,10.4,-,N/A,,Mostly Cloudy,190,2013-08-20 19:51:00
2:51 PM,84.2,35.6,18,30.16,10.0,SW,8.1,18.4,N/A,,Mostly Cloudy,220,2013-08-20 20:51:00
3:54 PM,84.2,35.6,18,30.15,10.0,SW,5.8,-,N/A,,Partly Cloudy,220,2013-08-20 21:54:00
4:51 PM,82.4,33.8,17,30.14,10.0,SSW,6.9,-,N/A,,Clear,200,2013-08-20 22:51:00
5:51 PM,82.4,28.4,14,30.14,10.0,WSW,10.4,-,N/A,,Clear,250,2013-08-20 23:51:00
6:53 PM,80.6,28.4,15,30.14,10.0,SW,8.1,-,N/A,,Clear,230,2013-08-21 00:53:00
7:51 PM,75.2,30.2,19,30.15,10.0,SW,5.8,-,N/A,,Clear,220,2013-08-21 01:51:00
8:52 PM,69.8,33.8,27,30.17,10.0,Calm,Calm,-,N/A,,Clear,0,2013-08-21 02:52:00